Location: L�Ave Maria
(50.7161°N, 1.5911°E)
Time: 12:54:47
(UTC+00:00)

Terra - Pass Details

Date: 10 July 2020
Orbit: 701 x 703 km, 98.2° (Epoch: 07 August)

Event Time Altitude Azimuth Distance (km) Brightness Sun altitude
Exits shadow 22:29:10 13° 202° (SSW) 1,969 3.7 -14.5°
Maximum altitude 22:32:56 34° 264° (W) 1,153 3.1 -14.8°
Drops below altitude 10° 22:37:17 10° 330° (NNW) 2,183 5.7 -15.0°
Sets 22:39:45 0° 339° (NNW) 3,106 7.1 -15.1°
